This demonstration page uses our WeatherBlox Daily Observations layout. Learn more.

Left ArrowRight Arrow

39.12711, -84.51439

Hourly Observations for May 9, 2016

Temp ( °F °C ) Dew Point ( °F °C ) Humidity (%) Winds ( mph kmh ) Pressure ( in mb ) Visibility ( mi km ) Precip ( " mm )
12:53 am 00:53 Cloudy with Light Rain 52 11.1 52 11.1 100 100 Calm 30.01 1016 9 14 0.00 0.03
1:53 am 01:53 Cloudy with Light Rain 53 11.7 53 11.7 100 100 Calm 30.02 1017 10 16 0.01 0.25
2:53 am 02:53 Cloudy with Light Rain 53 11.7 53 11.7 100 100 NNE 6 9 30.00 1016 8 13 0.01 0.25
3:53 am 03:53 Cloudy 54 12.2 53 11.7 97 97 Calm 29.99 1016 10 16 0.01 0.25
4:53 am 04:53 Cloudy 53 11.7 53 11.7 100 100 Calm 29.99 1016 10 16 0.00 0.00
5:53 am 05:53 Cloudy with Light Rain 53 11.7 53 11.7 100 100 NNE 5 7 30.00 1016 10 16 0.00 0.03
6:53 am 06:53 Cloudy with Light Rain 53 11.7 53 11.7 100 100 ESE 3 6 30.03 1017 8 13 0.01 0.25
7:53 am 07:53 Cloudy with Light Rain 54 12.2 53 11.7 97 97 NNE 3 6 30.05 1018 9 14 0.00 0.03
1:53 pm 13:53 Cloudy with Light Rain 60 15.6 56 13.3 86 86 ENE 10 17 30.05 1018 10 16 0.00 0.03
2:53 pm 14:53 Cloudy with Light Rain 60 15.6 56 13.3 86 86 NNE 6 9 30.06 1018 8 13 0.00 0.03
3:53 pm 15:53 Cloudy with Light Rain 61 16.1 57 13.9 87 87 NE 9 15 30.05 1018 8 13 0.01 0.25
4:53 pm 16:53 Cloudy with Light Rain 61 16.1 58 14.4 90 90 NE 6 9 30.04 1017 10 16 0.00 0.03
5:53 pm 17:53 Cloudy with Light Rain 61 16.1 59 15 93 93 NNE 7 11 30.03 1017 7 11 0.01 0.25
6:53 pm 18:53 Cloudy with Light Rain 61 16.1 60 15.6 97 97 NE 6 9 30.02 1017 8 13 0.01 0.25
7:53 pm 19:53 Cloudy 61 16.1 59 15 93 93 Calm 30.01 1016 8 13 0.00 0.03
8:53 pm 20:53 Cloudy with Light Rain 60 15.6 58 14.4 93 93 VRB 6 9 29.99 1016 9 14 0.00 0.03
9:53 pm 21:53 Mostly Clear 59 15 58 14.4 96 96 NE 5 7 30.02 1017 7 11 0.00 0.03
10:53 pm 22:53 Clear with Mist and Fog 57 13.9 57 13.9 100 100 Calm 30.03 1017 4 6 0.00 0.00
11:20 pm 23:20 Clear with Mist and Fog 57 14 57 14 100 100 Calm 30.03 1017 2 3 0.00 0.00
11:31 pm 23:31 Mostly Cloudy with Mist and Fog 57 13.9 57 13.9 100 100 NNE 3 6 30.03 1017 4 6 0.00 0.00
11:53 pm 23:53 Mostly Cloudy with Mist and Fog 58 14.4 58 14.4 100 100 NE 6 9 30.03 1017 6 10 0.00 0.00

Powered by AerisWeather